Погода в Мирном

Россия / Архангельская область     61°04′09″N   40°04′04″E
темп.,
°C
ветер,
м/с
пор.,
м/с
влажн.,
%
обл.,
%
осадки,
мм/ч
давл.,
гПа
погр.,
м
14 мая, пт
пт1400:00+15ююв61490100 1.0 1015697
03:00+13ю31097100 1.5 1013423
06:00+14ю499250 0.0 1014584
09:00+16ююз576522 0.1 10151337
12:00+19ююз574121 0.0 10152104
15:00+20юз573690 0.0 10152546
18:00+17ююз3653100 0.0 1015603
21:00+12ююз25749 0.0 101586
15 мая, сб
сб1500:00+11ю228160 0.0 101521
03:00+10ююв228298 0.0 101535
06:00+13юв24735 0.0 1014171
09:00+17юв3463100 0.0 1013759
12:00+21юв2452100 0.0 10121487
15:00+21юв3457100 0.6 10101423
18:00+18юв2681100 3.3 1008265
21:00+15ююз1598100 9.0 1007158
16 мая, вс
вс1600:00+14ююв2698100 4.8 1006243
03:00+13ююв2898100 5.1 1005260
06:00+13ю4109590 0.6 1005427
09:00+17ююз59756 0.6 1006742
12:00+19ююз586634 1.2 10061505
15:00+18юз477889 4.4 1006986
18:00+16юз4887100 2.1 1006686
21:00+13зюз369785 7.3 1008230
17 мая, пн
пн1700:00+12юз119882 0.9 100911
03:00+12юз129797 0.9 101195
06:00+12юз239793 0.0 1012253
09:00+14зюз239299 0.1 1014408
12:00+17зюз227482 0.3 1015905
15:00+18з236691 0.4 10151033
18:00+19сз116518 0.1 1015929
21:00+14всв2290100 0.1 101613
18 мая, вт
вт1800:00+12вюв2496100 0.0 101688
03:00+11в2896100 0.0 1015172
06:00+14вюв31184100 0.0 1014363
09:00+19вюв51065100 0.0 1013683
12:00+23юв5854100 0.0 10121141
15:00+26юв5104690 0.0 10101522
18:00+25ююв51151100 0.0 10091741
21:00+19ююв3127191 0.0 1009300